Location: Arbon
(43.0005°N, 0.7472°E)
Time: 01:39:44
(UTC+00:00)

NOSS 3-1 (A) - Pass Details

Date: 07 August 2020
Orbit: 745 x 1467 km, 63.4° (Epoch: 21 September)

Event Time Altitude Azimuth Distance (km) Brightness Sun altitude
Exits shadow 03:00:13 25° 189° (S) 1,579 4.2 -18.1°
Maximum altitude 03:03:18 57° 119° (ESE) 987 3.6 -17.7°
Drops below altitude 10° 03:09:16 10° 42° (NE) 2,682 7.1 -16.9°
Sets 03:12:05 0° 39° (NE) 3,744 8.3 -16.5°
